Abrixas - Orbit

View from above orbital plane
View from above orbital plane
View from above satellite
View from above satellite

Ground track
Ground track

The orbit data is extracted from the following two-line orbital elements,

1 25721U 99022A   13139.74446273  .00008821  00000-0  31162-3 0  6883
2 25721 048.4605 235.2413 0018589 287.2411 208.5435 15.29698494778840
Epoch (UTC): 19 May 2013 17:52:01
Eccentricity: 0.0018589
inclination: 48.4605°
perigee height: 464 km
apogee height: 489 km
right ascension of ascending node: 235.2413°
argument of perigee: 287.2411°
revolutions per day: 15.29698494
mean anomaly at epoch: 208.5435°
orbit number at epoch: 77884

The dashed part of the orbit path shows where the satellite is in the earth's shadow,  

Developed and maintained by Chris Peat, Heavens-Above GmbH. Please read the updated FAQ before sending e-mail. Imprint. DLR